Flag for Canada Weather past 2 weeks in Brandon, Manitoba, Canada

Now
59 °F

Clear.


Feels Like: 58 °F
Forecast: 58 / 76 °F
Wind: 7 mph from Northwest

Location: Brandon

Current Time: Jul 22, 2014 at 4:59:49 AM

Latest Report: Jul 22, 2014 at 4:00 AM


Visibility: 15 mi

Pressure: 30.03 "Hg

Humidity: 94%

Dew point: 57 °F

Location of BrandonLocation

Historic Weather in Brandon — Graph

°F

Brandon temperature yesterday

Maximum temperature yesterday: 77 °F (at 2:00 PM)
Minimum temperature yesterday: 63 °F (at 6:00 AM)
Average temperature yesterday: 69 °F

Past Weeks' High & Low Weather Summary

 TemperatureHumidityPressure
High82 °F (Jul 10, 5:00 PM)100% (Jul 8, 5:00 AM)30.31 "Hg (Jul 8, 5:00 AM)
Low48 °F (Jul 13, 5:00 AM)40% (Jul 12, 7:00 PM)29.52 "Hg (Jul 20, 8:00 AM)
Average66 °F73%29.91 "Hg
* Reported Jul 7 4:00 AM — Jul 22 4:00 AM, Brandon, Weather by CustomWeather, © 2014

Note: Actual official high and low records may vary slightly from our data, if they occured in-between our weather recording intervals... More about our weather records

Advertising

Brandon weather history for previous 24 hours

 ConditionsComfort  
Time TempWeatherWind HumidityBarometerVisibility
4:00 AM
Jul 22
59 °FClear.7 mph94%30.03 "Hg15 mi
3:00 AM59 °FClear.6 mph94%30.00 "Hg15 mi
2:00 AM63 °FPartly cloudy.6 mph94%29.99 "Hg15 mi
1:00 AM64 °FPassing clouds.7 mph94%29.98 "Hg15 mi
12:00 AM63 °FPassing clouds.5 mph100%29.96 "Hg15 mi
11:00 PM
Jul 21
64 °FMostly cloudy.6 mph100%29.93 "Hg15 mi
10:00 PM64 °FBroken clouds.5 mph100%29.91 "Hg15 mi
9:00 PM66 °FMore clouds than sun.6 mph94%29.86 "Hg15 mi
8:00 PM68 °FMostly cloudy.5 mph88%29.90 "Hg15 mi
7:00 PM68 °FMostly cloudy.7 mph88%29.89 "Hg15 mi
6:00 PM68 °FSprinkles. Mostly cloudy.7 mph88%29.91 "Hg12 mi
5:00 PM72 °FSprinkles. Overcast.3 mph78%29.96 "Hg8 mi
4:00 PM73 °FSprinkles. More clouds than sun.8 mph74%29.89 "Hg15 mi
3:46 PM73 °FSprinkles. More clouds than sun.6 mph74%29.90 "Hg15 mi
3:00 PM77 °FScattered showers. More clouds than sun.7 mph69%29.88 "Hg15 mi
2:52 PM75 °FSprinkles. More clouds than sun.9 mph65%29.88 "Hg15 mi
2:00 PM77 °FCloudy.9 mph57%29.89 "Hg15 mi
1:00 PM75 °FBroken clouds.7 mph61%29.88 "Hg15 mi
12:00 PM73 °FBroken clouds.8 mph65%29.88 "Hg15 mi
11:00 AM72 °FBroken clouds.8 mph65%29.88 "Hg15 mi
10:00 AM72 °FScattered clouds.9 mph69%29.88 "Hg15 mi
9:00 AM70 °FPassing clouds.8 mph78%29.87 "Hg15 mi
8:00 AM66 °FBroken clouds.No wind88%29.86 "Hg15 mi
7:00 AM64 °FScattered clouds.2 mph94%29.84 "Hg15 mi
6:00 AM63 °FPassing clouds.5 mph100%29.83 "Hg15 mi
5:00 AM64 °FPassing clouds.8 mph94%29.81 "Hg15 mi
4:00 AM64 °FOvercast.3 mph94%29.80 "Hg15 mi
Weather by CustomWeather, © 2014

See weather overviewHow to use our weather pages